| time (UTC) | temp F | wind direction | speed MPH | gust MPH | rain 1hr in | rain 24hr in | rain mn in | humidity % | barometer mb |
| 20260504044048 | 48 | 248 | 0.0 | 0.0 | 0.00 | 0.00 | 0.00 | 68 | 976.7 |
| 20260504043548 | 48 | 248 | 0.0 | 0.0 | 0.00 | 0.00 | 0.00 | 68 | 976.6 |
| 20260504043048 | 48 | 248 | 0.0 | 0.0 | 0.00 | 0.00 | 0.00 | 68 | 976.6 |
| 20260504042548 | 48 | 248 | 0.0 | 0.0 | 0.00 | 0.00 | 0.00 | 68 | 976.5 |
| 20260504042048 | 48 | 248 | 0.0 | 0.0 | 0.00 | 0.00 | 0.00 | 68 | 976.4 |
| 20260504041546 | 48 | 248 | 0.0 | 0.0 | 0.00 | 0.00 | 0.00 | 68 | 976.5 |
| 20260504041046 | 48 | 248 | 0.0 | 0.0 | 0.00 | 0.00 | 0.00 | 68 | 976.4 |
| 20260504040546 | 48 | 248 | 0.0 | 0.0 | 0.00 | 0.00 | 0.00 | 68 | 976.5 |
| 20260504040046 | 48 | 248 | 0.0 | 2.0 | 0.00 | 0.00 | 0.00 | 67 | 976.6 |
| 20260504035543 | 47 | 248 | 0.0 | 2.0 | 0.00 | 0.00 | 0.00 | 67 | 976.5 |
| 20260504035042 | 47 | 248 | 1.0 | 2.0 | 0.00 | 0.00 | 0.00 | 68 | 976.6 |
| 20260504034542 | 47 | 248 | 0.0 | 2.0 | 0.00 | 0.00 | 0.00 | 68 | 976.6 |
| 20260504034045 | 46 | 248 | 1.0 | 2.0 | 0.00 | 0.00 | 0.00 | 70 | 976.6 |
| 20260504033542 | 46 | 248 | 0.0 | 2.0 | 0.00 | 0.00 | 0.00 | 70 | 976.5 |
| 20260504033050 | 46 | 248 | 0.0 | 2.0 | 0.00 | 0.00 | 0.00 | 70 | 976.5 |
| 20260504032542 | 46 | 248 | 0.0 | 2.0 | 0.00 | 0.00 | 0.00 | 70 | 976.5 |
| 20260504032043 | 46 | 248 | 0.0 | 0.0 | 0.00 | 0.00 | 0.00 | 69 | 976.4 |
| 20260504031543 | 46 | 248 | 0.0 | 0.0 | 0.00 | 0.00 | 0.00 | 68 | 976.5 |
| 20260504031045 | 46 | 248 | 0.0 | 0.0 | 0.00 | 0.00 | 0.00 | 68 | 976.6 |
| 20260504030541 | 46 | 248 | 0.0 | 0.0 | 0.00 | 0.00 | 0.00 | 67 | 976.5 |
| 20260504030043 | 46 | 248 | 0.0 | 1.0 | 0.00 | 0.00 | 0.00 | 66 | 976.5 |
| 20260504025542 | 46 | 248 | 0.0 | 1.0 | 0.00 | 0.00 | 0.00 | 66 | 976.5 |
| 20260504025043 | 46 | 248 | 0.0 | 1.0 | 0.00 | 0.00 | 0.00 | 66 | 976.5 |
| 20260504024554 | 46 | 248 | 0.0 | 0.0 | 0.00 | 0.00 | 0.00 | 66 | 976.5 |
| 20260504024041 | 46 | 248 | 0.0 | 0.0 | 0.00 | 0.00 | 0.00 | 66 | 976.6 |
| 20260504023545 | 47 | 248 | 0.0 | 1.0 | 0.00 | 0.00 | 0.00 | 64 | 976.5 |
| 20260504023044 | 47 | 248 | 0.0 | 1.0 | 0.00 | 0.00 | 0.00 | 64 | 976.6 |
| 20260504022541 | 47 | 248 | 0.0 | 1.0 | 0.00 | 0.00 | 0.00 | 63 | 976.6 |
| 20260504022041 | 47 | 248 | 0.0 | 2.0 | 0.00 | 0.00 | 0.00 | 62 | 976.5 |
| 20260504021549 | 47 | 248 | 0.0 | 2.0 | 0.00 | 0.00 | 0.00 | 63 | 976.4 |
| 20260504021040 | 47 | 248 | 0.0 | 2.0 | 0.00 | 0.00 | 0.00 | 62 | 976.4 |
| 20260504020539 | 47 | 248 | 0.0 | 2.0 | 0.00 | 0.00 | 0.00 | 61 | 976.3 |
| 20260504020046 | 48 | 248 | 0.0 | 3.0 | 0.00 | 0.00 | 0.00 | 62 | 976.3 |
| 20260504015540 | 48 | 248 | 1.0 | 3.0 | 0.00 | 0.00 | 0.00 | 62 | 976.2 |
| 20260504015040 | 48 | 248 | 0.0 | 3.0 | 0.00 | 0.00 | 0.00 | 61 | 976.1 |
| 20260504014539 | 48 | 248 | 0.0 | 3.0 | 0.00 | 0.00 | 0.00 | 62 | 976.2 |
| 20260504014038 | 48 | 248 | 0.0 | 3.0 | 0.00 | 0.00 | 0.00 | 61 | 976.2 |
| 20260504013539 | 48 | 248 | 0.0 | 0.0 | 0.00 | 0.00 | 0.00 | 60 | 976.0 |
| 20260504013047 | 49 | 248 | 0.0 | 0.0 | 0.00 | 0.00 | 0.00 | 58 | 975.9 |
| 20260504012539 | 49 | 248 | 0.0 | 0.0 | 0.00 | 0.00 | 0.00 | 58 | 975.9 |
| 20260504012038 | 49 | 248 | 0.0 | 0.0 | 0.00 | 0.00 | 0.00 | 59 | 975.9 |
| 20260504011541 | 49 | 248 | 0.0 | 0.0 | 0.00 | 0.00 | 0.00 | 59 | 975.9 |
| 20260504011037 | 50 | 248 | 0.0 | 0.0 | 0.00 | 0.00 | 0.00 | 60 | 975.7 |
| 20260504010537 | 50 | 248 | 0.0 | 0.0 | 0.00 | 0.00 | 0.00 | 59 | 975.7 |
| 20260504010037 | 50 | 248 | 0.0 | 0.0 | 0.00 | 0.00 | 0.00 | 57 | 975.6 |
| 20260504005537 | 51 | 248 | 0.0 | 0.0 | 0.00 | 0.00 | 0.00 | 58 | 975.6 |
| 20260504005037 | 51 | 248 | 0.0 | 0.0 | 0.00 | 0.00 | 0.00 | 57 | 975.6 |
| 20260504004543 | 51 | 248 | 0.0 | 0.0 | 0.00 | 0.00 | 0.00 | 55 | 975.5 |
| 20260504004037 | 52 | 248 | 0.0 | 0.0 | 0.00 | 0.00 | 0.00 | 56 | 975.4 |
| 20260504003538 | 52 | 248 | 0.0 | 0.0 | 0.00 | 0.00 | 0.00 | 54 | 975.3 |
| 20260504003037 | 53 | 248 | 0.0 | 2.0 | 0.00 | 0.00 | 0.00 | 53 | 975.4 |
| 20260504002537 | 53 | 248 | 0.0 | 2.0 | 0.00 | 0.00 | 0.00 | 53 | 975.3 |
| 20260504002040 | 54 | 248 | 0.0 | 1.0 | 0.00 | 0.00 | 0.00 | 51 | 975.3 |
| 20260504001537 | 54 | 248 | 0.0 | 0.0 | 0.00 | 0.00 | 0.00 | 51 | 975.1 |
| 20260504001036 | 54 | 248 | 0.0 | 1.0 | 0.00 | 0.00 | 0.00 | 50 | 975.3 |
| 20260504000535 | 55 | 248 | 0.0 | 2.0 | 0.00 | 0.00 | 0.00 | 49 | 975.3 |
| 20260504000035 | 56 | 248 | 0.0 | 2.0 | 0.00 | 0.00 | 0.00 | 49 | 975.2 |
| 20260503235535 | 56 | 248 | 0.0 | 2.0 | 0.00 | 0.00 | 0.00 | 49 | 975.2 |
| 20260503235039 | 57 | 248 | 0.0 | 2.0 | 0.00 | 0.00 | 0.00 | 47 | 975.2 |
| 20260503234535 | 57 | 248 | 0.0 | 1.0 | 0.00 | 0.00 | 0.00 | 47 | 975.2 |
| 20260503234035 | 58 | 248 | 0.0 | 3.0 | 0.00 | 0.00 | 0.00 | 46 | 975.2 |
| 20260503233536 | 58 | 250 | 1.0 | 3.0 | 0.00 | 0.00 | 0.00 | 42 | 975.2 |
| 20260503233034 | 58 | 5 | 0.0 | 1.0 | 0.00 | 0.00 | 0.00 | 44 | 975.2 |
| 20260503232534 | 59 | 5 | 0.0 | 1.0 | 0.00 | 0.00 | 0.00 | 41 | 975.2 |
| 20260503232034 | 59 | 5 | 0.0 | 1.0 | 0.00 | 0.00 | 0.00 | 42 | 975.1 |
| 20260503231534 | 60 | 5 | 0.0 | 2.0 | 0.00 | 0.00 | 0.00 | 39 | 975.2 |
| 20260503231034 | 61 | 5 | 0.0 | 3.0 | 0.00 | 0.00 | 0.00 | 37 | 975.1 |
| 20260503230534 | 62 | 5 | 0.0 | 4.0 | 0.00 | 0.00 | 0.00 | 37 | 975.1 |
| 20260503230034 | 63 | 5 | 0.0 | 4.0 | 0.00 | 0.00 | 0.00 | 34 | 975.0 |
| 20260503225533 | 63 | 271 | 1.0 | 4.0 | 0.00 | 0.00 | 0.00 | 30 | 974.9 |
| 20260503225033 | 63 | 271 | 0.0 | 5.0 | 0.00 | 0.00 | 0.00 | 31 | 975.0 |
| 20260503224534 | 63 | 238 | 0.0 | 7.0 | 0.00 | 0.00 | 0.00 | 29 | 975.0 |
| 20260503224032 | 63 | 213 | 2.0 | 7.0 | 0.00 | 0.00 | 0.00 | 28 | 975.1 |
| 20260503223532 | 64 | 39 | 2.0 | 6.0 | 0.00 | 0.00 | 0.00 | 28 | 975.1 |
| 20260503223032 | 64 | 42 | 0.0 | 5.0 | 0.00 | 0.00 | 0.00 | 30 | 975.1 |
| 20260503222531 | 64 | 42 | 2.0 | 5.0 | 0.00 | 0.00 | 0.00 | 28 | 975.1 |
| 20260503222031 | 64 | 220 | 1.0 | 4.0 | 0.00 | 0.00 | 0.00 | 28 | 975.2 |
| 20260503221533 | 64 | 248 | 1.0 | 7.0 | 0.00 | 0.00 | 0.00 | 28 | 975.2 |
| 20260503221034 | 64 | 22 | 1.0 | 6.0 | 0.00 | 0.00 | 0.00 | 29 | 975.3 |
| 20260503220530 | 65 | 260 | 1.0 | 5.0 | 0.00 | 0.00 | 0.00 | 28 | 975.3 |
| 20260503220034 | 65 | 9 | 0.0 | 6.0 | 0.00 | 0.00 | 0.00 | 32 | 975.3 |
| 20260503215529 | 65 | 272 | 1.0 | 6.0 | 0.00 | 0.00 | 0.00 | 28 | 975.3 |
| 20260503215029 | 65 | 22 | 1.0 | 10.0 | 0.00 | 0.00 | 0.00 | 30 | 975.3 |
| 20260503214529 | 65 | 23 | 2.0 | 10.0 | 0.00 | 0.00 | 0.00 | 28 | 975.3 |
| 20260503214029 | 65 | 5 | 2.0 | 8.0 | 0.00 | 0.00 | 0.00 | 29 | 975.4 |
| 20260503213529 | 65 | 5 | 2.0 | 10.0 | 0.00 | 0.00 | 0.00 | 28 | 975.4 |
| 20260503213029 | 65 | 273 | 2.0 | 10.0 | 0.00 | 0.00 | 0.00 | 27 | 975.4 |
| 20260503212531 | 65 | 24 | 2.0 | 6.0 | 0.00 | 0.00 | 0.00 | 29 | 975.3 |
| 20260503212029 | 65 | 271 | 2.0 | 10.0 | 0.00 | 0.00 | 0.00 | 29 | 975.4 |
| 20260503211536 | 65 | 160 | 2.0 | 10.0 | 0.00 | 0.00 | 0.00 | 30 | 975.4 |
| 20260503211027 | 65 | 67 | 1.0 | 7.0 | 0.00 | 0.00 | 0.00 | 29 | 975.4 |
| 20260503210526 | 65 | 51 | 3.0 | 9.0 | 0.00 | 0.00 | 0.00 | 30 | 975.4 |
| 20260503210026 | 65 | 5 | 2.0 | 9.0 | 0.00 | 0.00 | 0.00 | 30 | 975.5 |
| 20260503205533 | 65 | 30 | 4.0 | 9.0 | 0.00 | 0.00 | 0.00 | 30 | 975.7 |
| 20260503205026 | 66 | 17 | 2.0 | 10.0 | 0.00 | 0.00 | 0.00 | 29 | 975.7 |
| 20260503204525 | 65 | 59 | 2.0 | 10.0 | 0.00 | 0.00 | 0.00 | 29 | 975.8 |
| 20260503204024 | 65 | 44 | 2.0 | 6.0 | 0.00 | 0.00 | 0.00 | 29 | 975.7 |
| 20260503203527 | 65 | 360 | 2.0 | 6.0 | 0.00 | 0.00 | 0.00 | 29 | 975.7 |
| 20260503203024 | 65 | 9 | 1.0 | 6.0 | 0.00 | 0.00 | 0.00 | 28 | 975.8 |
| 20260503202523 | 64 | 271 | 2.0 | 8.0 | 0.00 | 0.00 | 0.00 | 28 | 975.9 |
| 20260503202022 | 64 | 24 | 2.0 | 8.0 | 0.00 | 0.00 | 0.00 | 28 | 975.9 |
| 20260503201522 | 65 | 242 | 2.0 | 6.0 | 0.00 | 0.00 | 0.00 | 30 | 976.0 |
| 20260503201021 | 65 | 246 | 2.0 | 8.0 | 0.00 | 0.00 | 0.00 | 31 | 976.1 |
| 20260503200522 | 64 | 266 | 2.0 | 8.0 | 0.00 | 0.00 | 0.00 | 31 | 976.1 |
| 20260503200022 | 64 | 10 | 2.0 | 7.0 | 0.00 | 0.00 | 0.00 | 31 | 976.1 |
| 20260503195521 | 64 | 27 | 3.0 | 10.0 | 0.00 | 0.00 | 0.00 | 31 | 976.3 |
| 20260503195021 | 64 | 32 | 4.0 | 10.0 | 0.00 | 0.00 | 0.00 | 31 | 976.3 |
| 20260503194521 | 64 | 360 | 3.0 | 7.0 | 0.00 | 0.00 | 0.00 | 32 | 976.5 |
| 20260503194021 | 64 | 9 | 1.0 | 7.0 | 0.00 | 0.00 | 0.00 | 32 | 976.6 |
| 20260503193519 | 65 | 250 | 1.0 | 6.0 | 0.00 | 0.00 | 0.00 | 31 | 976.7 |
| 20260503193034 | 64 | 22 | 1.0 | 9.0 | 0.00 | 0.00 | 0.00 | 31 | 976.7 |
| 20260503192518 | 64 | 42 | 2.0 | 6.0 | 0.00 | 0.00 | 0.00 | 31 | 976.7 |
| 20260503192018 | 63 | 270 | 1.0 | 8.0 | 0.00 | 0.00 | 0.00 | 35 | 976.8 |
| 20260503191518 | 63 | 17 | 3.0 | 8.0 | 0.00 | 0.00 | 0.00 | 32 | 976.9 |
| 20260503191021 | 63 | 202 | 1.0 | 8.0 | 0.00 | 0.00 | 0.00 | 30 | 977.0 |
| 20260503190517 | 63 | 42 | 3.0 | 8.0 | 0.00 | 0.00 | 0.00 | 29 | 977.0 |
| 20260503190030 | 64 | 238 | 2.0 | 7.0 | 0.00 | 0.00 | 0.00 | 35 | 977.0 |
| 20260503185516 | 63 | 184 | 2.0 | 6.0 | 0.00 | 0.00 | 0.00 | 32 | 977.3 |
| 20260503185016 | 63 | 247 | 2.0 | 6.0 | 0.00 | 0.00 | 0.00 | 31 | 977.2 |
| 20260503184518 | 62 | 267 | 2.0 | 7.0 | 0.00 | 0.00 | 0.00 | 31 | 977.5 |
| 20260503184015 | 62 | 260 | 1.0 | 18.0 | 0.00 | 0.00 | 0.00 | 32 | 977.5 |
| 20260503183614 | 62 | 28 | 4.0 | 18.0 | 0.00 | 0.00 | 0.00 | 30 | 977.7 |
| 20260503183013 | 61 | 269 | 3.0 | 10.0 | 0.00 | 0.00 | 0.00 | 31 | 977.6 |
| 20260503182518 | 61 | 270 | 3.0 | 8.0 | 0.00 | 0.00 | 0.00 | 31 | 977.6 |
| 20260503182017 | 61 | 5 | 3.0 | 8.0 | 0.00 | 0.00 | 0.00 | 34 | 977.9 |
| 20260503181513 | 61 | 30 | 2.0 | 9.0 | 0.00 | 0.00 | 0.00 | 32 | 977.9 |
| 20260503181014 | 62 | 27 | 3.0 | 11.0 | 0.00 | 0.00 | 0.00 | 33 | 978.0 |
| 20260503180511 | 61 | 9 | 1.0 | 11.0 | 0.00 | 0.00 | 0.00 | 36 | 977.9 |
| 20260503180012 | 61 | 31 | 2.0 | 7.0 | 0.00 | 0.00 | 0.00 | 36 | 978.0 |
| 20260503175509 | 60 | 244 | 2.0 | 6.0 | 0.00 | 0.00 | 0.00 | 37 | 978.1 |
| 20260503175009 | 60 | 15 | 2.0 | 6.0 | 0.00 | 0.00 | 0.00 | 33 | 978.2 |
| 20260503174509 | 59 | 257 | 2.0 | 6.0 | 0.00 | 0.00 | 0.00 | 38 | 978.2 |
| 20260503174008 | 59 | 36 | 2.0 | 6.0 | 0.00 | 0.00 | 0.00 | 36 | 978.3 |
| 20260503173508 | 60 | 80 | 1.0 | 6.0 | 0.00 | 0.00 | 0.00 | 36 | 978.3 |
| 20260503173016 | 59 | 273 | 2.0 | 6.0 | 0.00 | 0.00 | 0.00 | 38 | 978.3 |
| 20260503172506 | 59 | 211 | 3.0 | 9.0 | 0.00 | 0.00 | 0.00 | 35 | 978.6 |
| 20260503172007 | 58 | 205 | 2.0 | 11.0 | 0.00 | 0.00 | 0.00 | 37 | 978.7 |
| 20260503171506 | 59 | 271 | 4.0 | 11.0 | 0.00 | 0.00 | 0.00 | 35 | 978.8 |
| 20260503171007 | 58 | 250 | 2.0 | 8.0 | 0.00 | 0.00 | 0.00 | 35 | 978.8 |
| 20260503170504 | 59 | 270 | 2.0 | 9.0 | 0.00 | 0.00 | 0.00 | 39 | 978.9 |
| 20260503160108 | 56 | 137 | 2.0 | 7.0 | 0.00 | 0.00 | 0.00 | 40 | 979.5 |
| 20260503150549 | 53 | 161 | 2.0 | 7.0 | 0.00 | 0.00 | 0.00 | 44 | 980.1 |
| 20260503131034 | 49 | 256 | 1.0 | 6.0 | 0.00 | 0.00 | 0.00 | 51 | 980.1 |
| 20260503130531 | 48 | 203 | 1.0 | 5.0 | 0.00 | 0.00 | 0.00 | 52 | 979.9 |
| 20260503110512 | 37 | 194 | 0.0 | 2.0 | 0.00 | 0.00 | 0.00 | 83 | 978.9 |
| 20260503100121 | 36 | 193 | 0.0 | 1.0 | 0.00 | 0.00 | 0.00 | 84 | 978.0 |
| 20260503081548 | 37 | 193 | 0.0 | 2.0 | 0.00 | 0.00 | 0.00 | 83 | 976.7 |
| 20260503081142 | 37 | 193 | 0.0 | 2.0 | 0.00 | 0.00 | 0.00 | 83 | 976.7 |
| 20260503080541 | 37 | 193 | 0.0 | 4.0 | 0.00 | 0.00 | 0.00 | 83 | 976.6 |
| 20260503072537 | 38 | 193 | 0.0 | 2.0 | 0.00 | 0.00 | 0.00 | 81 | 976.3 |
| 20260503072039 | 39 | 193 | 0.0 | 2.0 | 0.00 | 0.00 | 0.00 | 81 | 976.3 |
| 20260503071541 | 39 | 193 | 0.0 | 2.0 | 0.00 | 0.00 | 0.00 | 81 | 976.3 |
| 20260503071035 | 39 | 193 | 0.0 | 3.0 | 0.00 | 0.00 | 0.00 | 81 | 976.3 |
| 20260503070536 | 38 | 193 | 0.0 | 3.0 | 0.00 | 0.00 | 0.00 | 82 | 976.3 |
| 20260503055026 | 39 | 191 | 0.0 | 1.0 | 0.00 | 0.00 | 0.00 | 79 | 976.2 |
| 20260503054532 | 40 | 191 | 0.0 | 1.0 | 0.00 | 0.00 | 0.00 | 78 | 976.1 |
| 20260503054027 | 40 | 191 | 0.0 | 2.0 | 0.00 | 0.00 | 0.00 | 78 | 976.1 |
| 20260503053523 | 40 | 191 | 0.0 | 2.0 | 0.00 | 0.00 | 0.00 | 77 | 976.1 |
| 20260503053022 | 40 | 191 | 0.0 | 2.0 | 0.00 | 0.00 | 0.00 | 77 | 976.1 |
| 20260503052521 | 40 | 191 | 0.0 | 2.0 | 0.00 | 0.00 | 0.00 | 76 | 976.0 |
| 20260503052026 | 41 | 191 | 0.0 | 2.0 | 0.00 | 0.00 | 0.00 | 76 | 976.1 |
| 20260503051520 | 41 | 191 | 0.0 | 2.0 | 0.00 | 0.00 | 0.00 | 76 | 976.1 |
| 20260503051019 | 41 | 191 | 0.0 | 2.0 | 0.00 | 0.00 | 0.00 | 76 | 976.0 |
| 20260503050517 | 41 | 191 | 0.0 | 3.0 | 0.00 | 0.00 | 0.00 | 76 | 976.0 |
| 20260503050017 | 41 | 191 | 1.0 | 3.0 | 0.00 | 0.00 | 0.00 | 76 | 976.0 |
| 20260503045519 | 41 | 191 | 0.0 | 2.0 | 0.00 | 0.00 | 0.00 | 76 | 975.9 |
| 20260503045016 | 42 | 191 | 0.0 | 4.0 | 0.00 | 0.00 | 0.00 | 75 | 975.9 |